This is the latest recevied weather packets stored in our database for station/object N1YZ. If no packets are shown the sender has not sent any weather packets the latest 10 day(s).
| Time | Temp. | Humidity | Pressure | Rain* | Wind** | Luminosity | Snow |
|---|---|---|---|---|---|---|---|
| 1777778907 | 11.67° C | 72% | 1037.3 hPa | 0 mm | - | 0 W/m² | - |
| 1777778606 | 11.67° C | 74% | 1037.4 hPa | 0 mm | - | 0 W/m² | - |
| 1777778303 | 12.22° C | 73% | 1037.2 hPa | 0 mm | - | 0 W/m² | - |
| 1777778001 | 12.22° C | 72% | 1037.4 hPa | 0 mm | - | 0 W/m² | - |
| 1777777696 | 12.22° C | 70% | 1037.3 hPa | 0 mm | - | 0 W/m² | - |
| 1777777393 | 12.22° C | 69% | 1037.2 hPa | 0 mm | - | 0 W/m² | - |
| 1777777090 | 12.22° C | 69% | 1037.3 hPa | 0 mm | - | 0 W/m² | - |
| 1777776788 | 12.22° C | 69% | 1037.1 hPa | 0 mm | - | 0 W/m² | - |
| 1777776484 | 12.22° C | 69% | 1037.2 hPa | 0 mm | - | 0 W/m² | - |
| 1777776181 | 12.22° C | 66% | 1037.1 hPa | 0 mm | - | 0 W/m² | - |
| 1777775878 | 12.22° C | 63% | 1037.1 hPa | 0 mm | - | 0 W/m² | - |
| 1777775575 | 12.22° C | 63% | 1037.1 hPa | 0 mm | - | 0 W/m² | - |
| 1777775271 | 12.22° C | 69% | 1037.1 hPa | 0 mm | - | 0 W/m² | - |
| 1777774970 | 12.78° C | 69% | 1037 hPa | 0 mm | - | 0 W/m² | - |
| 1777774668 | 12.78° C | 67% | 1037 hPa | 0 mm | - | 0 W/m² | - |
| 1777774363 | 12.78° C | 68% | 1036.9 hPa | 0 mm | - | 0 W/m² | - |
| 1777774062 | 12.78° C | 66% | 1036.9 hPa | 0 mm | - | 0 W/m² | - |
| 1777773759 | 12.78° C | 65% | 1036.8 hPa | 0 mm | - | 0 W/m² | - |
| 1777773455 | 12.78° C | 66% | 1036.7 hPa | 0 mm | - | 0 W/m² | - |
| 1777773152 | 12.78° C | 64% | 1036.6 hPa | 0 mm | - | 0 W/m² | - |
| 1777772848 | 13.33° C | 64% | 1036.5 hPa | 0 mm | - | 0 W/m² | - |
| 1777772546 | 13.33° C | 64% | 1036.4 hPa | 0 mm | - | 0 W/m² | - |
| 1777772243 | 13.33° C | 62% | 1036.2 hPa | 0 mm | - | 0 W/m² | - |
| 1777771941 | 13.33° C | 61% | 1036.4 hPa | 0 mm | - | 0 W/m² | - |
| 1777771638 | 13.33° C | 60% | 1036.1 hPa | 0 mm | - | 0 W/m² | - |
* Rain latest hour (hover to see other rain measurements)
** Current wind speed in m/s (hover to see current wind gust speed)